User: anonymous   Login
Location: Barcelona
(41.3830°N, 2.1830°E)
Time: 00:19:39
(UTC+01:00)
Language:

XW-2A - Orbit

View from above orbital plane
View from above orbital plane
View from above satellite
View from above satellite

Ground track
Ground track

The orbit data is extracted from the following two-line orbital elements,

1 40903U 15049E   19316.87967612  .00001688  00000-0  41124-4 0  9990
2 40903  97.3209   0.3671 0012897 340.5123  69.6250 15.42304793232935
Epoch (UTC): 12 November 2019 21:06:44
Eccentricity: 0.0012897
inclination: 97.3209°
perigee height: 430 km
apogee height: 448 km
right ascension of ascending node: 0.3671°
argument of perigee: 340.5123°
revolutions per day: 15.42304793
mean anomaly at epoch: 69.6250°
orbit number at epoch: 23293

The dashed part of the orbit path shows where the satellite is in the earth's shadow,  

DLR